www.pogodaiklimat.ru

Погода и климат >> Архив погоды >> Россия >> Хабаровский край >> Советская Гавань


АРХИВ ПОГОДЫ в Советской Гавани

Время (UTC), дата Ветер
(напр.,м/с)
 
Видим.   Явления Облачность Т
(С)
Тd
(С)
f
(%)
Тe
(С)
Тes
(С)
Комфортность P
(гПа)
Po
(гПа)
Тmin
(С)
Tmax
(С)
R
(мм)
R24
(мм)
S
(см)
06 19.08 Ю 4 50 км {морось} 10/8 600 м
[Sc As op Ci fib]
+17.0 +14.2 84 +17 +17 1015.4 1012.6
09 19.08 Ю 2 20 км 10/8 300 м
[St Ac lent Ci fib]
+16.4 +14.2 87 +16 +16 1015.0 1012.5 +17.1 0.0
12 19.08 Ю 2 16 км 10/10 300 м
[St]
+15.5 +13.6 88 +15 +15 1016.1 1013.3
15 19.08 штиль 0 11 км 10/10 300 м
[St]
+15.1 +13.3 89 +15 +15 1016.0 1013.1
18 19.08 штиль 0 6000 м ливневой дождь 10/10 300 м
[Cb cap]
+14.0 +13.4 96 +14 +14 1015.8 1012.9
21 19.08 штиль 0 10 км {ливн. осадки} 10/10 200 м
[St]
+14.0 +13.5 97 +14 +14 1015.4 1012.5 +13.9 9
00 20.08 В 2 4000 м слаб. морось 10/10 200 м
[St]
+14.6 +14.1 97 +14 +14 1014.6 1012.1
03 20.08 В 2 10 км слаб. морось 10/10 200 м
[St]
+15.3 +14.6 96 +15 +15 1014.2 1011.7
06 20.08 Ю 2 10 км слаб. морось 10/10 300 м
[St]
+15.0 +13.9 93 +15 +15 1013.9 1011.4
09 20.08 Ю 2 4000 м слаб. морось 10/10 200 м
[St]
+14.4 +13.4 94 +14 +14 1014.8 1012.3 +15.5 0.0
12 20.08 штиль 0 3900 м слаб. морось 10/10 200 м
[St]
+14.0 +13.0 94 +14 +14 1015.6 1013.1
15 20.08 Ю 2 4800 м слаб. морось 10/10 300 м
[St]
+13.7 +12.6 93 +13 +13 1015.8 1013.2
18 20.08 штиль 0 7000 м в посл. час морось 10/10 300 м
[St]
+13.8 +12.0 89 +13 +13 1016.0 1013.5
21 20.08 штиль 0 10 км 10/10 300 м
[St]
+13.8 +12.0 89 +13 +13 1016.9 1014.4 +13.6 0.0
00 21.08 Ю 2 10 км 10/10 300 м
[St]
+14.6 +11.7 83 +14 +14 1017.4 1014.9
03 21.08 Ю 2 10 км слаб. ливневой дождь 10/10 300 м
[Cb cap]
+14.6 +11.8 83 +14 +14 1017.7 1015.1
06 21.08 Ю 4 4000 м {ливн. осадки} 10/8 300 м
[St Ac As]
+15.3 +11.2 77 +14 +15 1017.3 1014.4
09 21.08 Ю 2 20 км 10/8 300 м
[Cb cap Ac As]
+14.5 +11.0 80 +14 +14 1016.9 1014.4 +16.2 0.0
12 21.08 Ю 2 12 км 10/6 300 м
[Cb cap Ac As]
+13.8 +10.9 83 +13 +13 1017.6 1015.1
15 21.08 Ю 2 11 км 10/6 300 м
[Sc Ac As]
+13.6 +10.8 83 +13 +13 1017.2 1014.7
18 21.08 Ю 2 9000 м слаб. ливневой дождь 10/8 300 м
[Cb cap As trans]
+12.5 +11.4 93 +11 +11 1016.8 1014.3
21 21.08 ЮВ 2 4000 м в посл. час ливневой дождь 10/10 300 м
[Cb cap]
+13.0 +11.7 92 +12 +12 1017.1 1014.6 +12.4 3
00 22.08 ЮВ 2 4000 м слаб. ливневой дождь 10/10 200 м
[Cb cap]
+13.1 +12.1 94 +12 +12 1017.8 1014.9
03 22.08 ЮВ 4 4000 м дымка 10/9 200 м
[Cb cap Ac lent]
+15.8 +12.0 78 +15 +15 1017.1 1014.2
06 22.08 ЮВ 2 10 км {морось} 10/10 200 м
[St]
+14.9 +11.7 81 +15 +15 1016.7 1013.8
09 22.08 Ю 2 10 км {ливн. осадки} 10/10 200 м
[St]
+14.2 +11.6 84 +14 +14 1016.7 1014.2 +16.9 2
12 22.08 штиль 0 9000 м {ливн. осадки} 10/10 300 м
[St]
+13.5 +11.5 88 +13 +13 1016.9 1014.3
15 22.08 штиль 0 10 км 10/10 300 м
[St]
+12.9 +11.5 91 +12 +12 1016.6 1014.0
18 22.08 штиль 0 12 км 10/10 300 м
[St]
+12.4 +11.6 95 +12 +12 1016.3 1013.7
21 22.08 штиль 0 10 км ливневой дождь 10/10 300 м
[Cb cap]
+12.4 +11.7 95 +12 +12 1016.0 1013.5 +12.2 0.9
00 23.08 СВ 2 4000 м морось {ливн. осадки} 10/10 100 м
[St]
+13.2 +12.6 96 +12 +12 1016.1 1013.6
03 23.08 штиль 0 4000 м в посл. час морось 10/10 200 м
[St]
+14.1 +12.8 92 +14 +14 1015.7 1013.2
06 23.08 штиль 0 10 км в посл. час морось 10/10 300 м
[St]
+14.3 +12.0 86 +14 +14 1015.0 1012.5
09 23.08 штиль 0 20 км {ливн. осадки} 10/10 100 м
[St]
+13.8 +11.5 86 +13 +13 1015.0 1012.1 +16.6 0.6
12 23.08 штиль 0 18 км {ливн. осадки} 10/10 300 м
[St]
+13.2 +11.1 87 +13 +13 1014.8 1011.9
15 23.08 штиль 0 10 км 10/10 300 м
[St]
+12.7 +11.1 90 +12 +12 1014.1 1011.3
18 23.08 штиль 0 8000 м слаб. ливневой дождь 10/10 200 м
[Cb cap]
+11.8 +10.7 93 +11 +11 1013.7 1010.8
21 23.08 ЮВ 2 10 км слаб. морось 10/10 100 м
[Cb cap]
+11.6 +10.6 94 +10 +10 1013.5 1010.6 +11.4 1
00 24.08 СВ 2 4000 м ливневой дождь {морось} 10/10 200 м
[Cb cap]
+12.3 +10.8 91 +11 +11 1012.8 1010.3
03 24.08 СВ 2 10 км ливневой дождь 10/9 300 м
[Cb cap As trans]
+13.4 +11.8 90 +13 +13 1012.5 1010.0
06 24.08 СВ 2 4000 м ливневой дождь {морось} 10/10 200 м
[Cb cap]
+12.9 +11.7 92 +12 +12 1012.2 1009.7
09 24.08 В 2 4000 м ливневой дождь 10/10 200 м
[Cb cap]
+13.3 +11.9 91 +13 +13 1012.2 1009.7 +13.6 7
12 24.08 С 2 11 км слаб. ливневой дождь 10/10 300 м
[Cb cap]
+12.8 +11.3 91 +12 +12 1012.1 1009.5
15 24.08 штиль 0 9000 м дождь 10/8 300 м
[Frnb As op]
+12.3 +10.8 91 +12 +12 1011.2 1008.7
18 24.08 СВ 2 9000 м слаб. ливневой дождь 10/10 300 м
[Cb cap]
+12.2 +10.7 91 +11 +11 1010.8 1008.3
21 24.08 штиль 0 10 км ливневой дождь 10/10 300 м
[Cb cap]
+12.5 +11.3 92 +12 +12 1011.3 1008.8 +12.0 2
00 25.08 штиль 0 10 км ливневой дождь 10/10 300 м
[Cb cap]
+13.2 +12.0 92 +13 +13 1011.3 1008.8
03 25.08 В 2 20 км в посл. час ливневой дождь 10/10 300 м
[St]
+15.0 +11.5 80 +15 +15 1010.7 1008.2
06 25.08 СВ 2 20 км {ливн. осадки} 10/10 300 м
[St]
+14.8 +11.1 78 +15 +15 1010.6 1008.1
09 25.08 СВ 2 20 км слаб. ливневой дождь 10/8 300 м
[Cb cap Ac As]
+14.0 +12.0 88 +13 +13 1011.0 1008.5 +15.6 3
12 25.08 С 2 16 км {ливн. осадки} 10/8 300 м
[Cb cap Ac As]
+12.9 +11.2 89 +12 +12 1011.8 1009.3
15 25.08 штиль 0 10 км слаб. ливневой дождь 10/10 300 м
[Cb cap]
+12.3 +10.9 91 +12 +12 1011.5 1009.0
18 25.08 С 2 8000 м в посл. час ливневой дождь 10/10 300 м
[Cb cap]
+11.8 +10.8 94 +11 +11 1011.4 1008.9
21 25.08 Ю 2 20 км 10/8 300 м
[Cb cap Ac und]
+11.7 +10.5 92 +10 +10 1011.9 1009.3 +11.6 2
00 26.08 штиль 0 20 км 10/6 300 м
[St Ac lent Cc]
+14.1 +11.4 84 +14 +16 1012.3 1009.4 +11.5
03 26.08 штиль 0 20 км 10/4 600 м
[Sc Ac lent Cc]
+19.2 +13.4 69 +20 +26 1010.7 1007.9

 

Местоположение метеостанции Советская Гавань (Хабаровский край, Россия): широта 49.00 долгота 140.30 высота над уровнем моря 24 м.

В архиве по умолчанию представлена погода в Советской Гавани за последнюю неделю. Архивные данные за месяц целиком и за предыдущие месяцы, начиная с января 2011 года, Вы можете получить, выбрав интересующий диапазон дат из раскрывающегося списка и нажав кнопку "Ввод!".


*Определитесь, кто Вы:
робот инопланетянин человек

Внимание! Время в таблицах - всемирное. Для получения местного времени необходимо прибавить поправку, которая равна 10 ч.

Смотрите также архив погоды в соседних городах и на ближайших метеорологических станциях:

Погода в Тумнине (Хабаровский край, Россия) (75 км)
Погода в Мопау (Хабаровский край, Россия) (103 км)
Погода в Углегорске (Сахалинская область, Россия) (124 км)
Погода в Солекуль (Хабаровский край, Россия) (169 км)
Погода в Пильво (Сахалинская область, Россия) (175 км)
Погода в Ильинском (Сахалинская область, Россия) (180 км)
Погода в Макарове (Сахалинская область, Россия) (181 км)
Погода в Сегжеме (Хабаровский край, Россия) (203 км)
Погода в Поронайске (Сахалинская область, Россия) (205 км)
Погода в Оноре (Сахалинская область, Россия) (209 км)

Пояснения к столбцам:

Ветер - указаны скорость ветра в м/с - средняя за 10 мин, порывы в срок и между сроками (в фигурных скобках) и направление, откуда дует ветер: С - северный, СВ - северо-восточный, В - восточный, ЮВ - юго-восточный, Ю - южный, ЮЗ - юго-западный, З - западный, СЗ - северо-западный.
Видимость - горизонтальная дальность видимости в метрах или километрах. При видимости от 1 до 10 км при отсутствии осадков обычно наблюдается дымка, при ухудшении видимости до 1 км и менее - туман. В сухую погоду видимость может ухудшаться дымом, пылью или мглою.
Явления - указаны атмосферные явления, наблюдавшиеся в срок или в последний час перед сроком; фигурными скобками обозначены явления, наблюдавшиеся между сроками (за 1-3 часа до срока); квадратными скобками обозначены град или гололедные отложения с указанием их диаметра в мм.
Облачность - указаны через наклонную черту общая и нижняя облачность в баллах и высота нижней границы облаков в метрах; квадратными скобками обозначены формы облаков: Ci - перистые, Cs - перисто-слоистые, Cc - перисто-кучевые, Ac - высококучевые, As - высокослоистые, Sc - слоисто-кучевые, Ns - слоисто-дождевые, Cu - кучевые, Cb - кучево-дождевые. Подробнее классификацию облаков см. в Атласе облаков (PDF).
T - Температура воздуха - температура, измеренная на высоте 2 м над землей.
Td - Температура точки росы - температура, при понижении до которой содержащийся в воздухе водяной пар достигнет насыщения.
f - Относительная влажность воздуха - влажноcть воздуха, измеренная на высоте 2 м над землей.
Te - Эффективная температура - температура, которую ощущает одетый по сезону человек в тени. Характеристика душности погоды. При расчете учитывается влияние влажности воздуха и скорости ветра на теплоощущения человека.
Tes - Эффективная температура на солнце - температура, которую ощущает человек, с поправкой на солнечный нагрев. Характеристика знойности погоды. Зависит от высоты солнца над горизонтом, облачности и скорости ветра. Ночью, в пасмурную погоду, а также при ветре 12 м/с и более поправка равна нулю.
P - Атмосферное давление - приведенное к уровню моря атмосферное давление.
Po - Атмосферное давление - измеренное на уровне метеостанции атмосферное давление.
Tmin - Минимальная температура - минимум температуры воздуха на высоте 2 м над землей.
Tmax - Максимальная температура - максимум температуры воздуха на высоте 2 м над землей.
R - Количество осадков - Количество выпавших осадков за период времени, мм. При наведении курсора мыши на число - период времени, за который выпало указанное количество осадков.
R24 - Количество осадков - Количество выпавших осадков за 24 часа, мм.
S - Снежный покров - Высота снежного покрова, см. При наведении курсора мыши на число - состояние снежного покрова и степень покрытия местности в баллах.